Location: Sternwarte ZA, Rosenfeld-Brittheim
(48.2889°N, 8.6789°E)
Time: 05:25:15
(UTC+01:00)

ISS - Pass Details

Date: 23 November 2020
Orbit: 418 x 421 km, 51.6° (Epoch: 26 November)

Event Time Altitude Azimuth Distance (km) Brightness Sun altitude
Rises 18:54:21 0° 248° (WSW) 2,357 1.4 -22.1°
Reaches altitude 10° 18:56:27 10° 248° (WSW) 1,496 0.1 -22.5°
Enters shadow 18:59:02 50° 252° (WSW) 538 -2.9 -22.9°
